Regional Weather Roundup
Issued by NWS

Home | Current Version | Previous Version | Graphics & Text | Print | Product List | Glossary On
Versions: 1 2 3 4 5 6 7 8 9 10 11 12 13 14 15 16 17 18 19 20 21 22 23 24 25 26 27 28 29 30 31 32 33 34 35 36 37 38 39 40 41 42 43 44 45 46 47 48 49 50
000
ASUS45 KBOI 310010
RWRID

IDAHO REGIONAL WEATHER ROUNDUP
NATIONAL WEATHER SERVICE BOISE ID
600 PM MDT THU JUL 30 2015

NOTE: "FAIR" INDICATES FEW OR NO CLOUDS BELOW 12000 FEET
WITH NO SIGNIFICANT WEATHER AND/OR OBSTRUCTIONS TO VISIBILITY

IDZ012-014-310100-
SOUTHWEST IDAHO


CITY           SKY/WX    TMP DP  RH WIND       PRES   REMARKS
BOISE          SUNNY     94  32  11 VRB3      30.13F
CALDWELL       SUNNY     95  34  11 N6        30.13F HX  90
MOUNTAIN HOME  SUNNY     96  24   7 NW6       30.13F HX  90
$$

IDZ016-017-310100-
SOUTHCENTRAL IDAHO


CITY           SKY/WX    TMP DP  RH WIND       PRES   REMARKS
BURLEY         SUNNY     90  33  13 CALM      30.20F
JEROME         SUNNY     89  30  12 W6        30.21F
TWIN FALLS     SUNNY     92  28  10 NW12      30.20F
$$

IDZ019>023-310100-
SOUTHEAST IDAHO


CITY           SKY/WX    TMP DP  RH WIND       PRES   REMARKS
IDAHO FALLS    SUNNY     87  32  14 VRB5      30.28F
POCATELLO      SUNNY     89  24   9 VRB5      30.25F
REXBURG        SUNNY     84  26  12 W5        30.29F
$$

IDZ006-010-011-018-031-032-310100-
CENTRAL IDAHO MOUNTAINS


CITY           SKY/WX    TMP DP  RH WIND       PRES   REMARKS
MCCALL         SUNNY     84  32  15 S3        30.27F
HAILEY         SUNNY     82  39  21 S9        30.30F
STANLEY          N/A     83  23  11 NW9       30.38S
SALMON         SUNNY     88  41  19 NW5       30.17F
CHALLIS        SUNNY     88  27  11 CALM      30.25F
$$

IDZ002-004-006-007-026-310100-
NORTHERN IDAHO


CITY           SKY/WX    TMP DP  RH WIND       PRES   REMARKS
LEWISTON       SUNNY    101  33   9 NW9       30.01F HX  95
LOWELL           N/A     95  40  14 N3        30.02F HX  91
COEUR D`ALENE  SUNNY     93  34  12 S5        30.08F
MULLAN PASS    SUNNY     77  29  17 CALM      30.37F
$$



USA.gov is the U.S. government's official web portal to all federal, state and local government web resources and services.